Location: Kerb�bon
(47.7970°N, 3.3487°W)
Time: 12:10:35
(UTC+00:00)

SJ 16-02 - Pass Details

Date: 12 May 2021
Orbit: 606 x 616 km, 75.0° (Epoch: 18 June)

Event Time Altitude Azimuth Distance (km) Brightness Sun altitude
Rises 23:10:25 0° 249° (WSW) 2,882 4.7 -22.5°
Reaches altitude 10° 23:13:31 10° 272° (W) 1,982 4.1 -22.6°
Maximum altitude 23:16:09 15° 309° (NW) 1,656 4.2 -22.7°
Drops below altitude 10° 23:18:49 10° 346° (NNW) 1,990 5.1 -22.8°
Sets 23:21:56 0° 9° (N) 2,899 6.0 -23.0°
